Location: Unspecified
(30.6330°N, 0.0000°E)
Time: 02:35:57
(UTC+00:00)

Cosmos 923 Rocket - Visible Passes

Search period start: 04 April 2026 00:00
Search period end: 14 April 2026 00:00
Orbit: 753 x 781 km, 74.0° (Epoch: 29 March)

Date Brightness Start Highest point End Pass type
(mag) Time Alt. Az. Time Alt. Az. Time Alt. Az.
4 Apr 7.0 22:12:28 10° NNW 22:12:28 10° NNW 22:12:28 10° NNW visible
5 Apr 6.5 21:35:07 10° N 21:36:05 16° N 21:36:05 16° N visible
6 Apr 6.0 20:58:07 10° N 20:59:44 19° NNE 20:59:44 19° NNE visible
7 Apr 5.9 20:21:32 10° NNE 20:23:25 17° NE 20:23:25 17° NE visible
7 Apr 6.7 22:02:49 10° NW 22:03:41 14° NW 22:03:41 14° NW visible
8 Apr 6.1 19:46:05 10° NE 19:47:08 11° NE 19:47:08 11° NE visible
8 Apr 5.9 21:25:08 10° NNW 21:27:24 26° NNW 21:27:24 26° NNW visible
9 Apr 5.0 20:47:49 10° N 20:51:10 39° N 20:51:10 39° N visible
10 Apr 4.8 20:10:50 10° N 20:14:59 34° NE 20:14:59 34° NE visible
10 Apr 6.6 21:53:38 10° NW 21:55:15 16° WNW 21:55:15 16° WNW visible
11 Apr 5.4 19:34:19 10° NNE 19:38:10 20° ENE 19:38:50 20° ENE visible
11 Apr 5.5 21:15:26 10° NW 21:19:07 33° WNW 21:19:07 33° WNW visible
12 Apr 6.0 18:59:11 10° NE 19:00:31 11° ENE 19:01:52 10° ENE visible
12 Apr 4.1 20:37:47 10° NNW 20:43:02 70° WSW 20:43:03 70° WSW visible
13 Apr 4.0 20:00:30 10° N 20:05:44 63° ENE 20:07:02 47° SE visible
13 Apr 6.8 21:46:00 10° W 21:47:05 11° W 21:47:20 11° W visible
